Date,TemperatureHighF,TemperatureAvgF,TemperatureLowF,DewpointHighF,DewpointAvgF,DewpointLowF,HumidityHigh,HumidityAvg,HumidityLow,PressureMaxIn,PressureMinIn,WindSpeedMaxMPH,WindSpeedAvgMPH,GustSpeedMaxMPH,PrecipitationSumIn
2014-1-1,35.6,27.6,19.3,26.0,20.2,13.0,83,74,65,30.41,30.19,2,0,5,0.00
2014-1-2,28.1,25.0,15.8,26.0,22.5,14.0,96,90,78,30.18,29.64,3,1,6,0.00
2014-1-3,16.6,11.2,7.4,15.0,3.3,-6.0,95,72,52,30.49,29.64,4,2,7,0.00
2014-1-4,23.9,15.6,6.7,17.0,6.0,-6.0,86,66,54,30.54,30.29,5,1,7,0.00
2014-1-5,45.3,28.9,19.7,45.0,26.4,17.0,100,90,70,30.30,29.70,6,1,9,0.01
2014-1-6,54.3,34.7,5.1,54.0,28.8,-9.0,100,80,52,29.90,29.41,7,3,14,0.43
2014-1-7,6.3,2.4,-3.0,-3.0,-9.7,-15.0,68,57,50,30.45,29.91,6,2,8,0.00
2014-1-8,21.7,12.4,4.9,13.0,1.5,-4.0,71,62,50,30.61,30.44,2,0,4,0.00
2014-1-9,29.6,23.6,19.6,19.0,14.8,12.0,77,69,56,30.68,30.52,2,0,4,0.00
2014-1-10,34.1,30.2,25.7,34.0,28.4,19.0,100,93,76,30.56,30.16,3,1,6,0.28
2014-1-11,58.9,48.0,33.9,59.0,48.0,34.0,100,100,95,30.15,29.34,9,3,16,0.82
2014-1-12,45.9,38.3,33.7,45.0,32.4,29.0,96,79,71,30.10,29.47,4,2,9,0.00
2014-1-13,50.6,42.3,34.4,38.0,34.3,29.0,84,74,62,30.11,29.86,9,2,14,0.00
2014-1-14,47.1,43.3,39.1,44.0,41.7,38.0,100,94,70,29.88,29.68,5,1,9,0.33
2014-1-15,40.2,36.1,31.9,40.0,35.5,31.0,100,97,88,29.96,29.87,5,1,7,0.01
2014-1-16,33.7,30.3,26.3,30.0,21.4,17.0,87,70,60,29.98,29.86,3,1,5,0.00
2014-1-17,38.9,32.1,26.0,29.0,25.7,18.0,95,78,65,29.97,29.83,2,0,3,0.00
2014-1-18,33.8,25.5,16.4,29.0,19.0,10.0,95,77,62,29.95,29.75,4,2,7,0.00
2014-1-19,34.7,26.1,16.6,26.0,18.0,10.0,81,72,64,29.91,29.71,4,1,7,0.00
2014-1-20,42.5,36.8,32.1,30.0,26.0,22.0,77,66,54,29.87,29.63,4,2,8,0.00
2014-1-21,31.8,18.5,7.2,24.0,15.0,4.0,93,86,71,29.94,29.79,4,1,8,0.00
2014-1-22,9.4,4.5,-1.8,4.0,-3.9,-8.0,86,69,59,30.07,29.85,3,2,5,0.00
2014-1-23,17.1,10.9,5.9,9.0,2.6,-2.0,83,70,60,30.37,30.06,3,1,4,0.00
2014-1-24,12.8,8.7,4.2,1.0,-0.5,-2.0,76,66,54,30.47,30.07,3,1,5,0.00
2014-1-25,23.4,18.9,10.9,22.0,11.5,2.0,95,74,54,30.07,29.47,3,1,10,0.00
2014-1-26,24.2,18.0,9.2,20.0,9.5,2.0,94,70,50,29.93,29.59,3,1,7,0.00
2014-1-27,38.7,26.5,13.8,28.0,15.2,-1.0,79,63,43,30.13,29.63,6,2,15,0.07
2014-1-28,13.1,8.6,4.6,4.0,-4.1,-8.0,85,57,47,30.42,30.12,3,1,5,0.00
2014-1-29,15.4,10.3,3.5,5.0,-1.7,-8.0,88,60,44,30.35,30.19,3,1,5,0.00
2014-1-30,23.8,16.2,9.6,9.0,1.6,-3.0,75,54,42,30.50,30.20,3,1,5,0.00
2014-1-31,37.7,29.1,16.0,21.0,16.2,9.0,80,60,41,30.25,30.11,2,1,5,0.02
2014-2-1,42.6,37.1,32.7,34.0,23.8,14.0,94,61,45,30.30,29.99,8,2,13,0.00
2014-2-2,47.7,41.6,34.8,39.0,33.6,28.0,98,75,51,30.08,29.92,3,1,7,0.00
2014-2-3,37.3,30.5,23.4,37.0,30.0,23.0,98,98,94,30.32,30.06,4,0,7,0.24
2014-2-4,28.9,23.4,15.9,26.0,20.8,14.0,97,89,75,30.47,30.21,2,0,5,0.00
2014-2-5,31.3,30.0,26.9,31.0,29.5,26.0,99,98,97,30.22,29.83,2,0,6,0.00
2014-2-6,23.6,21.9,21.1,21.0,19.8,19.0,93,91,89,30.31,30.27,0,0,0,0.00
2014-2-7,27.6,23.4,18.4,23.0,20.0,16.0,94,87,81,30.35,30.31,0,0,0,0.00
2014-2-8,25.4,20.3,16.2,17.0,14.2,11.0,87,77,63,30.35,30.19,0,0,0,0.00
2014-2-9,24.2,20.8,17.5,21.0,17.1,13.0,96,86,76,30.21,30.01,0,0,0,0.00
2014-2-10,23.1,18.7,14.1,20.0,12.1,8.0,96,76,59,30.32,30.05,0,0,0,0.00
2014-2-11,20.6,15.7,11.1,9.0,7.1,4.0,84,69,58,30.51,30.32,0,0,0,0.00
2014-2-12,22.1,15.1,6.5,17.0,7.2,1.0,93,71,57,30.57,30.25,0,0,0,0.00
2014-2-13,31.6,27.5,18.3,31.0,27.0,17.0,99,98,93,30.23,29.20,0,0,0,0.00
2014-2-14,38.6,32.2,25.1,29.0,26.0,21.0,99,79,62,29.77,29.23,3,0,8,0.14
2014-2-15,32.2,28.9,22.7,30.0,25.6,14.0,98,88,69,29.86,29.60,6,2,7,0.00
2014-2-16,24.9,20.0,14.9,17.0,11.9,8.0,87,72,58,30.18,29.86,4,2,6,0.00
2014-2-17,26.1,19.1,11.6,15.0,8.0,5.0,88,63,45,30.45,30.19,3,1,7,0.00
2014-2-18,39.9,29.9,20.8,31.0,25.6,11.0,98,84,61,30.29,29.99,4,1,7,0.14
2014-2-19,44.7,36.6,28.5,39.0,32.5,26.0,97,85,69,30.10,29.70,7,2,10,0.47
2014-2-20,46.8,39.7,33.6,35.0,28.0,22.0,89,65,39,30.27,29.96,7,2,13,0.00
2014-2-21,52.7,38.5,34.8,53.0,37.0,30.0,100,94,64,29.96,29.64,6,2,10,0.15
2014-2-22,53.3,44.7,35.9,33.0,25.6,21.0,66,49,32,30.07,29.94,6,2,14,0.00
2014-2-23,48.0,43.1,33.1,35.0,30.2,26.0,96,62,44,30.00,29.87,4,2,9,0.06
2014-2-24,35.4,30.3,23.2,31.0,17.7,11.0,87,61,43,30.11,29.86,4,2,9,0.00
2014-2-25,29.4,24.1,20.8,22.0,14.5,10.0,87,67,59,30.10,29.98,3,1,6,0.00
2014-2-26,25.2,21.2,13.7,22.0,10.2,-2.0,93,64,44,29.99,29.86,4,1,6,0.00
2014-2-27,27.6,18.5,8.0,15.0,4.0,-8.0,70,54,42,30.15,29.68,5,2,8,0.00
2014-2-28,18.1,10.5,2.5,-1.0,-8.0,-12.0,58,44,30,30.44,30.16,3,1,4,0.00
2014-3-1,32.5,23.9,11.5,19.0,8.1,-10.0,60,51,33,30.43,30.18,4,1,7,0.00
2014-3-2,36.9,33.0,27.5,32.0,25.7,17.0,97,76,55,30.17,30.00,4,0,5,0.08
2014-3-3,27.0,16.4,11.0,23.0,8.4,1.0,94,72,56,30.35,30.00,6,1,6,0.00
2014-3-4,27.7,16.7,7.2,10.0,2.9,-1.0,71,56,38,30.44,30.26,2,0,3,0.00
2014-3-5,36.8,26.5,18.9,14.0,8.6,3.0,65,48,33,30.45,30.22,3,1,7,0.00
2014-3-6,28.2,21.3,14.5,18.0,8.2,2.0,82,59,40,30.61,30.45,4,1,7,0.01
2014-3-7,35.9,28.9,20.9,28.0,23.3,17.0,85,79,71,30.43,29.94,4,1,8,0.00
2014-3-8,50.3,40.1,30.0,35.0,29.6,-99.9,91,69,55,29.93,29.86,5,-9,6,0.00
2014-3-9,40.4,35.5,33.3,35.0,24.4,18.0,90,65,47,30.05,29.89,5,2,7,0.01
2014-3-10,51.5,41.8,33.4,34.0,26.9,19.0,64,56,49,29.96,29.62,4,2,9,0.00
2014-3-11,59.9,52.1,46.6,42.0,37.8,31.0,66,59,52,29.69,29.59,6,2,8,0.00
2014-3-12,56.8,47.4,22.9,52.0,40.0,15.0,98,76,60,29.64,28.99,11,3,21,0.39
2014-3-13,26.5,20.9,15.5,16.0,6.6,2.0,76,55,37,30.14,29.33,6,3,10,0.00
2014-3-14,43.9,32.7,19.3,27.0,15.5,5.0,64,50,40,30.22,29.88,7,2,15,0.00
2014-3-15,54.7,47.2,39.1,35.0,28.8,26.0,61,50,39,30.04,29.78,8,2,11,0.00
2014-3-16,38.6,32.1,26.4,28.0,15.8,8.0,73,53,33,30.18,30.03,4,1,7,0.00
2014-3-17,29.7,25.1,19.1,18.0,14.3,5.0,93,65,43,30.12,30.02,4,1,8,0.03
2014-3-18,41.6,32.7,27.3,25.0,17.0,11.0,61,53,41,30.27,30.11,4,1,8,0.01
2014-3-19,41.4,35.8,29.6,41.0,32.9,17.0,99,89,57,30.25,29.84,5,2,14,0.60
2014-3-20,48.1,41.8,37.3,40.0,33.3,25.0,100,75,48,29.96,29.77,8,2,14,0.00
2014-3-21,49.2,40.5,32.3,27.0,24.6,19.0,77,55,32,30.05,29.95,4,2,11,0.00
2014-3-22,62.2,47.8,37.3,40.0,32.8,26.0,88,59,30,30.02,29.80,8,3,13,0.00
2014-3-23,42.9,36.2,25.7,28.0,23.1,13.0,68,60,48,30.14,29.97,3,1,8,0.00
2014-3-24,31.3,24.3,18.1,13.0,7.5,5.0,64,50,36,30.27,30.14,3,1,6,0.00
2014-3-25,31.5,27.2,22.1,29.0,18.5,4.0,97,72,42,30.16,29.88,4,0,8,0.00
2014-3-26,30.5,27.0,23.9,27.0,14.7,4.0,97,64,36,30.27,29.84,6,2,10,0.01
2014-3-27,39.1,29.5,19.3,27.0,14.3,6.0,79,54,40,30.43,30.23,4,1,10,0.01
2014-3-28,58.4,46.1,31.6,52.0,41.8,25.0,96,85,77,30.22,29.98,9,2,11,0.18
2014-3-29,56.5,46.8,43.6,51.0,45.0,41.0,100,93,82,30.11,29.58,7,2,10,0.74
2014-3-30,44.5,39.1,33.2,45.0,38.7,32.0,100,98,93,29.75,29.48,6,3,12,0.81
2014-3-31,56.0,43.3,32.9,38.0,32.7,29.0,96,70,43,30.09,29.75,8,3,13,0.00
2014-4-1,56.8,45.1,34.3,37.0,33.0,28.0,81,64,45,30.15,29.97,4,1,9,0.00
2014-4-2,56.3,46.6,38.9,47.0,41.6,37.0,98,83,64,30.13,29.99,3,1,6,0.08
2014-4-3,60.7,52.5,45.1,46.0,37.6,28.0,95,60,34,30.11,29.95,5,1,10,0.21
2014-4-4,46.1,42.5,40.3,44.0,40.7,38.0,99,93,85,29.99,29.73,8,3,14,0.03
2014-4-5,48.3,42.7,36.1,42.0,33.7,27.0,100,73,52,30.11,29.73,9,3,11,0.00
2014-4-6,53.6,42.3,30.7,28.0,25.0,23.0,77,53,32,30.23,30.11,3,1,7,0.00
2014-4-7,46.7,41.8,37.3,47.0,36.5,23.0,100,83,44,30.19,29.63,8,2,11,0.36
2014-4-8,58.5,52.3,45.4,54.0,45.6,37.0,100,80,54,29.66,29.45,9,3,18,0.07
2014-4-9,59.5,49.9,40.9,37.0,32.6,27.0,79,55,30,30.02,29.64,6,2,11,0.00
2014-4-10,63.7,52.6,41.5,38.0,32.7,27.0,61,48,35,30.19,30.00,8,2,22,0.00
2014-4-11,74.0,60.2,52.1,53.0,44.8,38.0,95,60,34,30.03,29.92,7,2,9,0.01
2014-4-12,69.6,58.4,47.0,52.0,41.9,34.0,98,61,28,30.23,30.00,5,2,9,0.00
2014-4-13,77.0,62.4,49.3,58.0,53.0,39.0,98,74,50,30.15,29.96,11,3,17,0.00
2014-4-14,71.3,65.1,59.3,60.0,56.8,55.0,89,75,60,29.98,29.78,8,3,19,0.00
2014-4-15,63.8,53.8,31.8,63.0,52.6,32.0,99,95,83,29.94,29.48,10,3,13,2.06
2014-4-16,42.6,33.1,24.2,31.0,20.6,16.0,99,63,40,30.56,29.94,5,2,7,0.01
2014-4-17,50.4,39.5,30.3,32.0,26.1,18.0,80,60,44,30.68,30.56,7,2,10,0.00
2014-4-18,52.3,41.1,33.0,35.0,31.5,28.0,85,70,49,30.61,30.27,4,1,7,0.00
2014-4-19,62.9,52.0,39.9,39.0,32.0,25.0,78,50,26,30.31,30.23,8,2,13,0.00
2014-4-20,58.2,49.9,42.2,35.0,30.5,25.0,65,48,39,30.43,30.30,9,2,11,0.00
2014-4-21,67.0,51.7,35.4,36.0,27.1,19.0,60,41,20,30.30,29.87,5,1,10,0.00
2014-4-22,70.3,56.0,48.1,57.0,48.9,35.0,94,78,51,29.86,29.54,5,2,12,0.13
2014-4-23,52.9,46.6,39.2,44.0,35.8,31.0,77,67,56,29.92,29.58,7,3,10,0.00
2014-4-24,58.7,47.3,36.7,31.0,22.5,17.0,74,41,22,30.05,29.91,7,2,8,0.00
2014-4-25,60.5,48.8,41.8,42.0,27.0,13.0,97,47,26,30.03,29.72,14,2,15,0.48
2014-4-26,69.8,54.9,42.7,48.0,41.8,32.0,100,66,31,29.88,29.69,5,2,10,0.01
2014-4-27,59.0,50.0,41.1,36.0,34.3,32.0,74,56,40,30.11,29.88,6,2,10,0.00
2014-4-28,60.7,50.3,40.3,47.0,37.9,32.0,97,64,47,30.13,29.98,4,1,6,0.04
2014-4-29,47.7,43.2,40.4,47.0,40.7,-99.9,99,93,85,30.28,30.06,8,-7,13,0.58
2014-4-30,58.2,45.6,40.0,58.0,45.5,40.0,100,100,99,30.28,29.85,8,3,12,4.89
2014-5-1,73.5,61.7,54.3,62.0,56.4,46.0,100,85,54,29.84,29.68,6,2,10,0.25
2014-5-2,63.4,56.6,51.4,46.0,41.2,39.0,72,57,44,29.85,29.74,6,2,8,0.00
2014-5-3,65.4,56.7,51.3,50.0,42.6,38.0,86,60,45,29.86,29.72,4,1,13,0.01
2014-5-4,58.8,53.1,48.6,46.0,40.5,33.0,86,63,42,29.86,29.73,5,2,9,0.00
2014-5-5,63.4,53.5,42.8,38.0,34.9,31.0,75,52,34,29.97,29.87,5,2,7,0.00
2014-5-6,67.5,58.5,49.5,38.0,32.0,24.0,50,37,28,30.06,29.88,5,1,6,0.00
2014-5-7,61.3,54.6,47.7,46.0,37.0,31.0,79,53,37,30.22,30.06,5,1,7,0.00
2014-5-8,75.7,60.3,51.4,61.0,54.1,46.0,97,81,59,30.16,30.02,5,1,8,0.00
2014-5-9,69.7,60.9,54.3,64.0,58.6,54.0,100,93,78,30.12,29.93,4,1,8,0.00
2014-5-10,81.0,66.5,60.4,65.0,61.5,58.0,100,86,49,29.93,29.87,4,1,15,0.21
2014-5-11,76.1,66.5,57.3,62.0,52.9,47.0,99,65,39,30.09,29.90,3,1,7,0.00
2014-5-12,82.4,71.0,60.9,69.0,59.6,49.0,88,68,46,30.10,30.02,6,1,8,0.09
2014-5-13,74.4,67.2,52.6,69.0,61.1,49.0,98,81,59,30.18,30.00,4,1,7,0.36
2014-5-14,65.9,57.0,49.9,63.0,55.5,49.0,100,94,85,30.25,30.14,5,1,7,0.00
2014-5-15,77.3,66.6,59.5,69.0,64.2,60.0,100,92,69,30.16,29.95,9,3,17,0.01
2014-5-16,66.4,60.6,52.4,65.0,59.5,50.0,100,96,86,29.95,29.77,9,2,18,1.25
2014-5-17,63.4,54.5,45.8,49.0,44.3,39.0,90,70,51,30.13,29.88,2,0,5,0.00
2014-5-18,64.6,54.0,46.0,46.0,41.5,38.0,84,64,42,30.20,30.13,4,0,6,0.00
2014-5-19,70.5,57.9,46.9,45.0,40.5,37.0,72,54,32,30.25,30.12,4,0,5,0.00
2014-5-20,74.0,62.8,53.0,51.0,45.8,41.0,73,55,36,30.17,30.01,3,0,5,0.00
2014-5-21,61.1,58.5,55.6,60.0,54.8,47.0,100,88,61,30.02,29.87,1,0,3,0.17
2014-5-22,80.4,64.7,56.8,68.0,61.6,57.0,100,91,56,29.88,29.72,3,0,11,0.28
2014-5-23,71.6,60.6,52.3,61.0,52.0,48.0,100,75,51,29.96,29.82,2,1,5,0.00
2014-5-24,69.9,60.7,52.1,57.0,53.2,49.0,94,77,60,30.09,29.94,2,0,4,0.00
2014-5-25,79.7,66.6,55.1,59.0,52.0,44.0,99,65,33,30.13,30.05,4,0,5,0.00
2014-5-26,84.1,72.7,62.3,58.0,54.1,48.0,68,53,38,30.09,29.93,4,1,7,0.00
2014-5-27,85.7,71.9,64.3,70.0,61.5,55.0,99,71,55,29.94,29.80,4,0,7,0.23
2014-5-28,74.0,63.6,53.1,71.0,62.8,53.0,100,97,87,30.09,29.78,2,0,5,0.05
2014-5-29,54.0,51.4,49.6,53.0,50.4,49.0,99,96,88,30.20,30.10,1,0,3,0.06
2014-5-30,73.6,60.2,51.4,60.0,54.6,50.0,100,83,56,30.15,30.01,3,0,4,0.01
2014-5-31,75.5,64.3,55.3,54.0,48.1,42.0,91,59,33,30.25,30.08,3,1,8,0.00
2014-6-1,76.4,62.7,50.8,55.0,52.1,48.0,99,72,43,30.34,30.23,2,0,5,0.00
2014-6-2,79.5,66.2,55.9,60.0,54.6,47.0,89,67,48,30.26,30.03,8,1,14,0.00
2014-6-3,86.1,71.3,63.0,74.0,65.2,58.0,96,82,57,30.04,29.80,4,1,7,0.25
2014-6-4,82.3,70.2,62.5,67.0,61.5,57.0,97,76,48,29.84,29.70,2,0,6,0.03
2014-6-5,73.4,63.6,56.8,63.0,57.6,54.0,100,82,55,29.82,29.61,2,0,5,0.10
2014-6-6,73.1,64.0,55.2,56.0,53.4,50.0,86,69,53,29.96,29.80,2,0,5,0.00
2014-6-7,82.5,69.2,58.2,59.0,54.8,52.0,82,62,41,30.02,29.92,3,0,5,0.00
2014-6-8,82.6,71.3,61.8,62.0,58.0,53.0,84,64,47,29.94,29.82,7,1,8,0.00
2014-6-9,78.1,67.9,62.1,71.0,65.8,60.0,100,93,77,29.90,29.81,2,0,3,0.66
2014-6-10,79.8,71.0,66.3,73.0,69.4,66.0,100,95,80,29.93,29.86,2,0,4,0.25
2014-6-11,69.6,64.6,60.7,69.0,64.6,61.0,100,100,98,30.04,29.92,2,0,3,0.23
2014-6-12,68.4,64.5,60.4,68.0,64.5,60.0,100,100,98,30.02,29.85,2,0,5,1.36
2014-6-13,81.0,69.3,65.2,74.0,68.3,65.0,100,97,74,29.85,29.71,1,0,7,0.76
2014-6-14,68.2,62.5,53.0,65.0,57.0,50.0,100,83,65,30.07,29.80,3,1,7,0.00
2014-6-15,79.8,65.6,52.6,61.0,55.3,50.0,93,71,46,30.15,30.06,3,0,5,0.00
2014-6-16,87.5,74.7,64.0,68.0,61.4,54.0,84,65,44,30.13,30.01,2,0,4,0.00
2014-6-17,90.0,78.7,69.3,75.0,69.6,65.0,90,75,51,30.06,29.89,3,0,11,0.00
2014-6-18,90.7,80.3,73.7,73.0,68.0,61.0,84,67,54,29.95,29.84,2,1,7,0.00
2014-6-19,77.0,69.0,65.1,69.0,67.0,64.0,100,93,68,30.00,29.88,2,0,11,0.29
2014-6-20,79.0,67.0,55.3,64.0,54.7,49.0,98,67,40,30.03,29.90,2,0,4,0.00
2014-6-21,75.5,67.1,60.0,61.0,55.2,48.0,81,66,53,29.94,29.86,1,0,4,0.00
2014-6-22,82.3,68.7,60.7,65.0,60.1,56.0,90,75,50,30.00,29.88,3,0,4,0.00
2014-6-23,79.9,69.7,61.2,64.0,60.9,57.0,99,75,54,30.11,30.00,3,0,9,0.00
2014-6-24,82.7,71.3,61.0,68.0,63.5,57.0,96,77,56,30.12,29.98,5,1,10,0.00
2014-6-25,86.2,75.3,67.2,75.0,70.7,66.0,99,86,63,29.99,29.78,5,1,9,1.04
2014-6-26,82.1,72.6,67.5,70.0,67.6,65.0,100,85,63,29.96,29.80,2,0,7,0.01
2014-6-27,85.1,72.4,65.0,69.0,65.6,59.0,95,80,56,30.18,29.95,2,0,3,0.00
2014-6-28,86.0,72.2,60.1,65.0,61.6,57.0,92,71,46,30.26,30.18,3,0,4,0.00
2014-6-29,83.4,72.6,63.1,64.0,60.8,50.0,90,68,49,30.22,30.09,3,1,7,0.00
2014-6-30,84.1,73.4,64.5,69.0,64.8,52.0,94,75,54,30.10,29.92,3,0,8,0.00
2014-7-1,87.5,77.5,67.3,75.0,70.9,66.0,98,81,59,29.94,29.80,5,1,11,0.00
2014-7-2,90.8,78.8,71.2,79.0,74.3,70.0,99,87,66,29.88,29.77,3,1,7,0.03
2014-7-3,88.3,75.2,68.3,78.0,72.4,68.0,100,92,66,29.95,29.85,5,0,19,0.12
2014-7-4,72.0,66.1,60.9,69.0,60.6,50.0,100,84,59,30.11,29.93,3,1,7,0.02
2014-7-5,79.8,67.6,56.4,56.0,53.5,50.0,84,63,41,30.21,30.10,2,0,5,0.00
2014-7-6,82.7,72.3,63.0,65.0,59.1,52.0,83,64,44,30.12,29.92,6,0,9,0.00
2014-7-7,87.0,77.5,68.7,70.0,67.4,65.0,91,72,52,29.91,29.75,5,1,13,0.00
2014-7-8,89.5,79.0,67.9,74.0,68.9,66.0,93,72,55,29.80,29.63,3,1,14,0.04
2014-7-13,81.2,78.2,68.1,75.0,73.2,67.0,96,85,73,29.95,29.86,4,1,15,0.05
2014-7-14,84.5,73.2,67.7,77.0,71.1,67.0,100,93,72,29.90,29.77,2,0,5,0.28
2014-7-15,83.7,72.5,67.8,77.0,71.2,68.0,100,96,70,29.82,29.68,3,0,4,0.58
2014-7-16,78.3,69.7,63.8,69.0,63.6,56.0,100,82,58,29.89,29.73,2,0,3,0.00
2014-7-17,77.9,67.7,59.4,63.0,57.8,54.0,87,72,52,30.11,29.89,2,0,7,0.00
2014-7-18,80.3,69.8,60.3,62.0,56.7,52.0,79,64,49,30.22,30.11,1,0,3,0.00
2014-7-19,79.5,70.3,63.3,63.0,60.1,55.0,89,71,50,30.20,30.12,1,0,5,0.00
2014-7-20,83.0,70.2,62.0,67.0,63.1,60.0,97,80,49,30.12,30.06,2,0,3,0.02
2014-7-21,83.4,71.3,62.9,68.0,64.8,62.0,99,81,58,30.18,30.10,1,0,2,0.00
2014-7-22,84.9,73.3,63.8,73.0,68.3,62.0,99,85,67,30.16,30.04,4,0,9,0.00
2014-7-23,89.2,75.7,67.3,76.0,70.7,66.0,99,86,62,30.03,29.75,3,0,8,0.95
2014-7-24,78.6,68.9,62.2,68.0,62.9,56.0,100,83,55,29.92,29.81,2,0,3,0.01
2014-7-25,80.2,66.9,55.7,62.0,56.1,51.0,87,70,48,30.03,29.92,4,0,4,0.00
2014-7-26,82.3,71.0,64.3,69.0,63.1,56.0,98,77,55,29.99,29.86,2,0,6,0.07
2014-7-27,88.1,75.0,65.0,74.0,70.0,65.0,99,86,61,29.86,29.60,4,1,7,2.96
2014-7-28,76.9,67.8,61.3,69.0,64.6,61.0,100,90,66,29.75,29.50,3,0,9,0.10
2014-7-29,71.2,62.7,56.0,61.0,58.2,54.0,99,86,68,29.98,29.75,1,0,2,0.01
2014-7-30,76.0,65.5,56.0,61.0,56.7,53.0,91,74,53,30.04,29.97,3,0,4,0.00
2014-7-31,80.6,70.3,61.0,67.0,62.1,56.0,88,76,58,30.11,30.02,3,0,7,0.00
2014-8-1,80.8,69.9,65.9,71.0,67.4,65.0,100,92,69,30.17,30.11,3,0,5,0.05
2014-8-2,75.3,68.1,62.7,68.0,65.7,63.0,100,92,75,30.15,30.05,3,0,6,0.06
2014-8-3,72.6,67.6,63.6,69.0,66.0,64.0,100,94,83,30.09,30.00,1,0,2,0.01
2014-8-4,80.5,70.3,62.5,69.0,65.9,63.0,100,87,61,30.08,30.02,1,0,2,0.00
2014-8-5,85.6,73.9,65.4,70.0,65.6,62.0,93,77,53,30.04,29.90,1,0,3,0.00
2014-8-6,75.6,67.4,62.0,68.0,63.5,60.0,96,87,76,29.91,29.86,2,0,3,0.02
2014-8-7,79.9,69.0,60.7,63.0,59.2,54.0,88,72,51,30.02,29.91,2,0,5,0.00
2014-8-8,78.7,67.9,59.7,63.0,57.5,52.0,81,70,52,30.11,30.02,2,0,3,0.00
2014-8-9,83.4,71.6,63.0,63.0,58.6,54.0,83,65,45,30.11,30.05,1,0,3,0.00
2014-8-10,85.5,73.9,65.3,67.0,60.6,55.0,85,65,42,30.12,30.05,2,0,3,0.00
2014-8-11,81.5,71.0,62.2,67.0,62.1,57.0,96,75,47,30.10,30.02,4,0,6,0.00
2014-8-12,70.3,67.6,65.2,70.0,67.3,65.0,100,99,91,30.02,29.76,3,1,8,1.02
2014-8-13,77.3,69.1,63.3,70.0,65.2,57.0,100,88,69,29.82,29.71,2,1,8,0.01
2014-8-14,74.8,63.8,55.5,62.0,56.3,52.0,96,78,54,29.90,29.81,4,0,6,0.12
2014-8-15,72.1,62.2,53.9,57.0,52.5,49.0,89,71,54,29.99,29.91,3,0,6,0.00
2014-8-16,76.0,66.2,57.3,58.0,54.2,50.0,84,66,49,30.01,29.91,4,0,7,0.00
2014-8-17,77.7,68.3,63.7,68.0,60.9,56.0,91,77,66,29.91,29.84,2,0,5,0.00
2014-8-18,79.9,69.0,59.9,66.0,60.8,56.0,87,76,56,29.92,29.80,2,0,2,0.00
2014-8-19,83.7,71.4,61.2,68.0,63.2,55.0,93,76,57,29.90,29.82,1,0,3,0.00
2014-8-20,83.4,72.3,65.6,70.0,66.1,63.0,95,81,62,30.00,29.89,3,0,5,0.00
2014-8-21,82.6,71.0,63.4,74.0,68.3,63.0,99,91,72,30.02,29.95,2,0,5,0.00
2014-8-22,76.1,69.7,65.2,70.0,67.0,63.0,100,91,77,30.00,29.93,2,0,4,0.00
2014-8-23,67.1,63.9,61.0,65.0,62.6,61.0,100,95,89,30.10,29.98,2,0,3,0.19
2014-8-24,78.8,67.0,59.5,66.0,61.4,59.0,100,84,53,30.14,30.08,2,0,4,0.00
2014-8-25,82.2,69.5,60.4,64.0,61.8,60.0,100,79,52,30.17,30.11,1,0,4,0.00
2014-8-26,85.7,73.0,65.5,67.0,62.8,58.0,92,71,51,30.15,30.05,2,0,3,0.00
2014-8-27,87.5,74.6,64.9,72.0,67.1,62.0,93,78,56,30.06,29.86,1,0,5,0.00
2014-8-28,74.0,67.8,59.4,69.0,59.4,52.0,93,75,54,30.07,29.85,3,0,4,0.00
2014-8-29,76.9,63.7,54.9,59.0,53.7,50.0,88,71,47,30.22,30.07,1,0,3,0.00
2014-8-30,75.1,66.8,58.4,66.0,62.2,57.0,98,86,68,30.23,30.11,3,0,3,0.00
2014-8-31,84.8,73.2,68.5,76.0,71.2,66.0,99,93,72,30.12,29.96,4,1,8,1.25
2014-9-1,85.4,75.3,69.8,76.0,72.8,70.0,100,92,71,29.99,29.90,4,0,7,0.73
2014-9-2,87.8,76.2,69.7,76.0,71.8,69.0,99,87,61,29.93,29.80,2,0,9,0.11
2014-9-3,79.0,70.8,65.1,69.0,65.5,61.0,98,84,63,30.11,29.85,1,0,3,0.00
2014-9-4,84.1,73.4,66.9,69.0,64.9,60.0,95,76,55,30.17,30.08,2,0,5,0.00
2014-9-5,84.3,73.7,67.9,76.0,71.7,67.0,100,93,74,30.14,29.99,2,0,5,0.00
2014-9-6,88.0,73.6,66.6,77.0,71.7,66.0,100,94,66,29.99,29.84,3,0,8,0.74
2014-9-7,76.7,65.8,59.6,66.0,58.4,54.0,98,79,48,30.16,29.93,1,0,5,0.00
2014-9-8,70.8,63.3,58.2,64.0,57.5,53.0,92,82,73,30.27,30.16,3,0,7,0.00
2014-9-9,75.2,64.8,59.7,64.0,60.4,57.0,92,86,68,30.22,30.10,2,0,6,0.00
2014-9-10,77.0,67.0,59.6,66.0,62.6,59.0,99,87,67,30.10,29.98,2,0,3,0.00
2014-9-11,81.7,70.8,64.1,74.0,67.7,63.0,99,90,75,29.98,29.82,3,1,10,0.00
2014-9-12,71.5,62.0,54.5,63.0,56.1,51.0,96,82,61,30.15,29.94,2,0,4,0.00
2014-9-13,62.2,56.9,53.3,62.0,55.7,51.0,100,95,89,30.19,30.07,1,0,3,0.17
2014-9-14,64.5,54.2,46.7,55.0,50.4,47.0,100,88,64,30.30,30.18,2,0,3,0.01
2014-9-15,68.6,57.4,49.0,54.0,50.2,46.0,94,78,55,30.24,30.05,1,0,3,0.00
2014-9-16,70.1,60.1,55.0,61.0,55.4,52.0,99,85,64,30.05,29.96,2,0,4,0.03
2014-9-17,70.0,60.0,53.7,55.0,52.0,50.0,89,76,55,30.05,29.95,1,0,3,0.00
2014-9-18,73.1,62.0,56.6,59.0,54.0,48.0,90,76,58,30.09,29.94,2,0,3,0.00
2014-9-19,67.9,57.1,49.8,57.0,52.3,48.0,97,84,68,30.31,30.09,2,0,7,0.00
2014-9-20,74.6,62.4,53.4,64.0,58.7,53.0,100,88,67,30.30,30.03,3,1,7,0.00
2014-9-21,77.8,66.4,59.1,67.0,62.9,59.0,100,89,66,30.04,29.60,3,0,5,0.09
2014-9-22,64.7,58.6,49.8,62.0,51.7,44.0,98,79,60,30.18,29.67,6,1,6,0.00
2014-9-23,68.6,55.7,45.5,50.0,46.2,42.0,88,72,48,30.38,30.19,1,0,4,0.00
2014-9-24,69.1,59.7,52.3,59.0,53.1,47.0,89,79,65,30.50,30.38,3,0,7,0.00
2014-9-25,58.9,56.6,54.2,59.0,56.1,54.0,100,98,90,30.40,30.22,3,1,7,0.96
2014-9-26,73.1,61.0,51.7,60.0,54.8,52.0,100,82,56,30.24,30.17,2,0,5,0.01
2014-9-27,79.7,66.9,58.0,63.0,57.7,54.0,89,74,51,30.23,30.15,2,0,3,0.00
2014-9-28,79.8,69.1,62.1,66.0,59.4,56.0,87,72,53,30.16,30.01,2,0,4,0.00
2014-9-29,74.2,66.2,62.7,65.0,60.5,56.0,97,82,65,30.00,29.88,1,0,4,0.00
2014-9-30,75.5,65.6,60.6,62.0,60.4,58.0,100,84,56,29.94,29.85,1,0,3,0.00
2014-10-1,70.9,62.3,57.4,61.0,58.7,56.0,99,88,69,30.06,29.93,1,0,4,0.00
2014-10-2,67.1,59.8,54.7,60.0,57.6,55.0,99,92,76,30.13,30.05,1,0,2,0.00
2014-10-3,67.2,59.8,53.9,60.0,57.1,54.0,100,91,76,30.09,29.75,4,1,7,0.08
2014-10-4,63.4,56.9,42.7,63.0,53.5,37.0,100,89,71,29.75,29.55,5,1,7,0.26
2014-10-5,55.2,46.1,36.0,43.0,38.1,34.0,93,74,55,29.98,29.75,3,0,6,0.00
2014-10-6,68.0,54.9,42.2,50.0,45.1,40.0,97,72,45,30.03,29.94,6,1,14,0.00
2014-10-7,66.6,58.9,55.0,59.0,54.6,50.0,98,86,66,30.01,29.82,3,1,9,0.21
2014-10-8,67.0,59.7,53.1,59.0,53.5,44.0,99,81,61,29.96,29.79,3,0,8,0.00
2014-10-9,66.2,56.6,48.5,47.0,43.5,39.0,80,62,44,30.07,29.95,3,0,9,0.00
2014-10-10,56.1,51.9,48.6,50.0,45.5,42.0,91,79,68,30.11,30.05,1,0,1,0.00
2014-10-11,50.7,49.0,47.4,50.0,48.4,47.0,100,97,86,30.17,30.00,1,0,3,0.55
2014-10-12,60.9,49.6,41.1,48.0,43.6,40.0,100,82,53,30.30,30.17,2,0,4,0.01
2014-10-13,62.0,55.7,50.7,62.0,54.7,48.0,100,96,89,30.30,30.20,3,0,3,0.06
2014-10-14,72.6,66.7,62.2,67.0,64.9,62.0,100,94,82,30.20,30.00,8,2,13,0.00
2014-10-15,69.6,67.2,62.5,69.0,66.8,62.0,100,98,95,30.00,29.71,8,2,13,1.18
2014-10-16,66.6,58.7,54.7,67.0,57.8,55.0,100,97,86,29.72,29.65,3,0,7,0.26
2014-10-17,66.6,58.0,52.6,57.0,54.6,53.0,100,89,64,29.76,29.64,3,0,10,0.00
2014-10-18,64.6,56.1,48.1,55.0,50.1,43.0,97,81,61,29.78,29.57,3,1,8,0.00
2014-10-19,49.6,46.0,40.7,44.0,36.7,32.0,87,71,52,30.07,29.77,3,1,6,0.00
2014-10-20,56.7,47.7,37.6,49.0,39.5,31.0,91,74,58,30.11,29.94,4,1,7,0.00
2014-10-21,62.5,54.0,47.3,54.0,49.9,47.0,97,87,67,29.93,29.79,2,0,3,0.02
2014-10-22,52.1,50.2,47.9,51.0,49.7,46.0,99,97,92,29.90,29.82,3,1,7,0.21
2014-10-23,51.9,49.5,46.5,47.0,46.1,45.0,95,88,79,29.86,29.78,4,1,7,0.01
2014-10-24,62.7,55.9,51.6,49.0,45.4,39.0,84,69,50,29.89,29.81,4,2,8,0.00
2014-10-25,63.7,55.9,47.4,49.0,44.7,40.0,79,67,55,29.89,29.60,3,1,8,0.00
2014-10-26,60.2,55.6,48.6,50.0,40.4,35.0,74,57,48,29.88,29.59,4,1,10,0.00
2014-10-27,61.7,52.6,45.7,41.0,37.8,35.0,73,58,43,30.06,29.88,3,1,5,0.00
2014-10-28,77.2,61.6,50.8,59.0,51.0,41.0,82,70,47,30.01,29.88,4,1,9,0.00
2014-10-29,65.5,56.4,48.1,59.0,52.2,45.0,99,87,62,29.95,29.86,5,1,9,0.12
2014-10-30,54.1,46.9,41.9,48.0,41.5,35.0,99,83,59,30.03,29.94,3,0,4,0.00
2014-10-31,51.8,45.0,39.7,39.0,35.2,32.0,78,69,51,30.02,29.82,2,0,6,0.00
2014-11-1,45.3,42.6,39.9,42.0,39.2,34.0,98,88,72,29.86,29.77,4,1,8,0.27
2014-11-2,42.9,39.1,36.6,34.0,27.1,19.0,88,64,45,30.14,29.83,7,3,12,0.00
2014-11-3,55.4,46.0,35.6,28.0,24.2,20.0,70,45,26,30.25,30.13,4,1,6,0.00
2014-11-4,68.6,58.4,50.2,42.0,29.5,22.0,59,35,19,30.19,30.01,5,1,8,0.00
2014-11-5,61.0,55.9,52.1,47.0,39.1,35.0,63,54,46,30.15,30.01,3,1,7,0.00
2014-11-6,50.6,46.9,44.3,49.0,46.2,41.0,100,97,71,30.11,29.63,2,0,5,0.54
2014-11-7,46.7,41.6,33.7,45.0,34.5,27.0,96,77,55,30.00,29.62,5,2,8,0.01
2014-11-8,44.8,37.8,28.9,37.0,30.0,26.0,88,74,54,30.05,29.91,3,1,10,0.00
2014-11-9,51.0,44.9,40.6,37.0,33.2,29.0,86,65,51,30.02,29.89,3,0,5,0.00
2014-11-10,58.0,48.7,41.6,43.0,37.2,29.0,92,65,54,30.17,30.01,4,1,9,0.00
2014-11-11,61.0,53.0,44.2,58.0,51.5,42.0,99,94,87,30.09,29.89,5,1,7,0.00
2014-11-12,59.9,52.8,38.0,57.0,45.4,30.0,99,77,51,30.08,29.85,5,1,7,0.00
2014-11-13,40.3,35.0,31.7,32.0,29.7,27.0,98,82,65,30.12,30.02,1,0,3,0.00
2014-11-14,34.7,31.2,26.5,31.0,25.3,21.0,98,80,61,30.23,30.00,2,0,4,0.07
2014-11-15,36.5,31.3,26.6,25.0,22.3,20.0,82,70,55,30.39,30.24,2,1,4,0.00
2014-11-16,39.0,34.3,30.1,34.0,27.0,20.0,97,75,62,30.37,30.05,2,1,5,0.14
2014-11-17,45.5,38.6,34.3,46.0,37.8,30.0,100,97,79,30.05,29.52,4,1,9,0.74
2014-11-18,35.9,23.1,18.8,30.0,9.9,5.0,80,58,44,30.17,29.69,5,2,8,0.00
2014-11-19,26.7,21.8,16.1,17.0,10.5,7.0,74,62,51,30.32,30.02,3,1,6,0.00
2014-11-20,40.9,33.1,25.8,27.0,19.7,13.0,70,58,52,30.08,29.89,5,1,6,0.00
2014-11-21,30.4,26.0,21.9,13.0,11.5,10.0,63,55,46,30.53,30.08,3,1,5,0.00
2014-11-22,39.4,32.1,22.1,25.0,17.5,11.0,64,56,41,30.52,30.22,4,1,8,0.00
2014-11-23,54.1,44.7,36.5,51.0,28.9,22.0,98,56,34,30.23,29.88,7,2,10,0.01
2014-11-24,65.0,60.4,51.6,61.0,57.5,51.0,100,90,78,29.86,29.56,9,4,19,0.27
2014-11-25,59.9,49.7,43.9,58.0,36.7,31.0,92,62,51,30.15,29.74,5,2,9,0.00
2014-11-26,45.4,35.3,31.1,36.0,32.1,31.0,99,90,58,30.16,29.83,2,0,4,0.27
2014-11-27,34.1,30.9,29.0,32.0,29.8,28.0,99,95,88,30.11,29.92,1,0,3,0.01
2014-11-28,31.5,28.1,24.6,29.0,22.0,17.0,96,78,65,30.27,30.10,2,1,5,0.00
2014-11-29,33.9,28.1,22.8,30.0,21.1,15.0,85,75,68,30.34,30.17,3,1,7,0.00
2014-11-30,53.4,41.7,34.1,45.0,36.3,30.0,90,81,73,30.17,30.06,4,2,9,0.59
2014-12-1,62.8,51.4,36.8,54.0,45.2,30.0,97,80,69,30.43,30.09,5,2,8,0.15
2014-12-2,36.4,32.1,29.2,36.0,27.8,24.0,99,85,70,30.56,30.28,4,1,5,0.01
2014-12-3,41.8,37.1,33.9,42.0,36.2,27.0,100,96,76,30.27,30.00,4,1,5,0.21
2014-12-4,37.8,34.1,30.4,27.0,25.9,24.0,82,72,60,30.50,30.25,3,1,5,0.00
2014-12-5,36.5,33.6,29.9,36.0,29.5,22.0,99,85,71,30.54,30.33,2,0,4,0.17
2014-12-6,43.9,39.6,36.3,44.0,39.5,36.0,100,99,97,30.33,30.05,4,1,15,0.46
2014-12-7,41.5,34.6,28.8,36.0,22.6,16.0,96,64,38,30.57,30.21,4,2,9,0.00
2014-12-8,29.7,26.1,22.2,28.0,17.6,7.0,94,71,51,30.62,30.28,5,1,7,0.00
2014-12-9,40.3,35.7,29.6,40.0,35.1,28.0,99,97,91,30.27,29.79,6,2,9,0.05
2014-12-10,37.9,34.9,29.5,36.0,31.5,26.0,97,87,76,29.79,29.69,6,3,9,0.01
2014-12-11,30.9,29.2,27.6,29.0,27.4,25.0,98,93,80,29.93,29.72,4,2,7,0.00
2014-12-12,34.3,32.4,28.1,32.0,28.4,25.0,94,85,76,30.05,29.93,2,1,5,0.02
2014-12-13,34.7,32.3,29.3,31.0,28.6,25.0,90,86,81,30.07,29.95,3,2,8,0.01
2014-12-14,41.5,38.1,31.8,38.0,34.6,29.0,91,87,82,30.00,29.91,4,2,7,0.00
2014-12-15,40.1,37.7,34.4,36.0,34.7,33.0,96,89,85,30.10,30.00,4,1,5,0.00
2014-12-16,44.0,38.8,32.2,44.0,38.7,32.0,100,99,96,30.07,29.85,4,1,10,0.28
2014-12-17,46.6,40.3,32.8,42.0,35.7,25.0,100,84,68,29.97,29.84,6,2,8,0.03
2014-12-18,33.7,31.9,30.4,27.0,25.0,20.0,83,76,65,30.08,29.95,5,2,7,0.00
2014-12-19,36.0,32.2,29.4,27.0,25.5,23.0,84,76,65,30.20,30.02,4,1,5,0.00
2014-12-20,31.3,29.3,26.4,25.0,23.1,22.0,84,78,73,30.30,30.18,1,0,3,0.00
2014-12-21,28.2,27.6,26.2,24.0,23.3,23.0,90,84,81,30.31,30.27,1,0,1,0.00
2014-12-22,38.7,37.0,36.1,39.0,35.7,33.0,99,95,86,30.18,30.10,2,1,6,0.06
2014-12-23,46.3,44.1,39.0,46.0,44.1,39.0,100,100,99,30.09,30.01,4,1,8,0.09
2014-12-24,58.6,49.7,43.6,59.0,49.8,44.0,100,100,100,30.03,29.50,9,2,13,1.04
2014-12-25,58.8,44.9,37.0,59.0,39.0,31.0,100,80,63,30.16,29.50,7,3,15,0.06
2014-12-26,42.8,38.4,32.8,34.0,31.8,29.0,87,77,70,30.30,30.15,3,1,5,0.00
2014-12-27,53.0,45.4,39.6,37.0,33.8,29.0,76,65,51,30.28,30.05,4,1,9,0.00
2014-12-28,49.7,44.8,39.9,43.0,39.5,34.0,94,82,71,30.07,29.89,3,1,8,0.02
2014-12-29,39.9,35.5,29.8,34.0,26.6,21.0,80,70,61,30.25,30.07,2,0,5,0.00
2014-12-30,31.0,28.3,24.8,22.0,17.9,13.0,82,66,52,30.41,30.25,2,0,4,0.00
2014-12-31,26.8,24.5,20.6,16.0,12.1,9.0,74,60,51,30.40,30.19,4,1,5,0.00
2015-1-1,35.9,29.6,22.4,21.0,14.2,9.0,59,53,43,30.20,30.00,4,1,7,0.00
2015-1-2,37.0,34.0,30.7,23.0,21.5,18.0,70,61,56,30.43,30.05,3,1,5,0.00